GFSCGP_850_thetae_066.txt.gz
Theta_e
313 309 311 305 308 313 314 315 315 315 315 316 316 317 319 318 315 314 319 319 326 329 329 329 328 327 329 328 327 324 325 328 327 326 325 326 326 326 326 325 324 322 321 322
315 313 311 309 309 310 314 316 316 316 316 317 317 318 317 316 316 316 321 320 326 328 329 329 328 327 328 327 327 324 323 328 326 327 325 326 326 326 326 326 326 322 320 322
316 317 315 313 312 311 311 312 316 316 316 317 317 317 317 316 316 317 320 323 322 328 329 328 327 327 327 327 326 323 319 326 327 327 325 326 326 325 324 324 326 323 322 320
316 316 316 316 315 315 318 312 312 315 316 318 318 319 317 316 316 317 316 318 321 326 329 329 327 327 327 327 326 322 320 325 326 325 324 322 321 321 321 322 324 323 321 319
315 317 318 317 316 316 317 319 318 318 317 316 319 317 318 316 317 317 315 317 319 323 328 329 328 328 327 327 326 323 320 323 323 322 324 322 321 322 322 323 322 323 321 320
313 316 316 316 316 317 318 318 318 316 316 318 319 319 318 316 318 318 318 318 318 325 327 329 328 328 327 327 326 324 321 321 324 322 322 321 321 322 322 322 322 322 322 320
308 313 315 317 317 317 317 319 320 322 320 321 320 320 320 318 317 318 318 319 319 325 327 327 327 328 327 327 326 325 323 319 322 323 320 321 321 321 322 322 322 322 322 320
308 311 311 316 316 317 317 319 321 326 325 322 319 320 318 318 318 319 319 319 318 326 327 328 328 328 328 328 327 326 324 321 320 323 321 320 320 322 322 322 321 321 321 317
310 314 312 314 315 315 316 321 318 319 320 322 323 321 321 319 317 317 317 319 321 327 327 328 328 328 329 328 328 328 326 323 320 320 321 321 320 321 321 321 320 320 319 319
310 313 312 313 314 315 317 318 321 322 325 325 323 321 324 320 319 318 317 317 323 327 327 328 329 329 329 329 329 328 328 326 324 319 319 322 321 321 321 320 320 320 320 317
313 312 311 312 314 316 317 319 318 320 322 325 325 327 324 321 318 318 319 320 320 324 328 328 328 329 328 328 329 329 328 328 327 324 319 319 322 321 321 321 321 321 320 318
311 314 317 314 312 313 316 319 319 322 323 321 323 325 323 322 318 316 319 319 319 320 321 325 328 328 328 328 327 328 327 328 328 327 323 319 319 320 321 321 320 320 320 320
309 312 316 314 314 313 315 316 319 320 319 323 325 325 323 322 322 320 317 318 319 319 319 320 324 325 327 327 328 328 327 327 327 326 325 324 321 319 319 320 321 322 322 321
309 312 316 318 319 317 319 318 317 319 322 321 320 323 324 322 321 319 318 318 318 317 317 318 318 318 319 320 322 323 324 324 325 327 327 326 325 324 322 321 319 319 321 322
309 310 314 314 315 314 316 318 317 319 318 321 321 322 324 323 318 319 318 318 317 316 316 315 314 314 313 314 315 317 319 321 325 326 326 326 326 326 325 324 323 322 320 319
310 310 312 313 313 311 314 318 318 318 320 318 319 322 321 320 319 318 318 316 315 314 314 313 311 311 310 310 311 313 314 316 319 321 323 325 325 326 326 325 325 324 324 323
310 311 309 312 312 312 315 315 317 318 320 320 322 321 320 318 318 316 316 314 312 312 312 311 310 310 309 308 308 310 312 314 315 317 319 322 324 324 324 325 325 326 326 325
308 308 308 310 310 312 314 311 313 319 318 317 318 318 319 317 316 316 312 312 310 310 310 310 309 309 309 309 310 309 308 309 310 312 314 316 318 320 322 322 323 324 325 326
307 307 307 309 311 310 309 314 314 317 316 316 315 317 319 316 312 310 308 308 306 306 306 307 307 308 309 309 309 309 309 308 308 309 310 310 312 315 317 318 319 320 323 323
306 305 305 307 311 311 313 313 312 313 319 315 316 316 316 314 312 308 304 303 303 303 303 304 305 305 307 307 307 308 308 308 307 307 308 309 309 309 311 313 316 318 318 319
305 304 307 306 307 309 311 312 312 314 317 313 312 313 313 311 308 303 302 301 301 301 303 303 302 303 303 304 305 306 306 306 305 305 305 306 307 308 308 309 309 312 316 318
307 307 306 306 308 308 310 313 313 313 312 310 310 309 306 304 302 300 301 302 302 300 299 298 299 300 300 300 301 300 300 299 299 299 301 302 302 303 305 305 306 308 310 314
311 310 309 307 306 308 307 308 310 311 309 308 308 307 306 303 300 300 300 300 299 298 298 298 298 298 298 298 298 298 296 297 296 296 295 294 294 296 298 301 303 306 308 308
310 309 310 310 309 307 305 304 304 304 303 304 304 304 303 300 298 297 298 297 297 297 297 297 297 297 296 295 295 295 294 294 294 294 293 292 292 292 293 294 295 296 297 298
309 307 308 311 308 306 305 304 303 301 302 302 302 300 299 301 297 297 296 295 295 297 296 296 295 294 293 292 293 293 293 292 292 291 290 290 289 288 287 287 287 286 287 290
304 302 305 307 305 303 303 302 303 304 301 300 300 299 297 299 298 297 297 293 292 291 291 291 291 290 290 290 291 292 292 292 292 291 290 289 288 288 287 286 285 285 285 285

GFSCGP_850_thetae_072.txt.gz
Theta_e
311 310 309 308 306 308 310 311 312 311 312 313 313 312 312 312 313 312 315 315 315 317 319 325 328 329 328 329 328 327 326 322 325 325 326 326 325 328 326 326 327 327 325 325
313 312 310 309 308 307 307 307 307 309 312 313 312 312 312 312 311 313 315 316 316 317 317 322 326 329 328 328 328 328 326 321 326 327 326 326 325 328 325 328 326 327 325 326
312 312 314 313 313 311 311 310 310 309 311 311 312 313 314 313 313 315 316 317 316 316 316 320 323 326 328 328 328 328 326 322 324 328 326 325 324 325 326 326 326 327 324 324
314 313 315 316 316 313 313 311 311 311 311 311 312 316 313 313 313 314 315 316 316 315 316 319 323 325 327 328 328 328 326 323 321 329 324 324 324 325 325 325 325 327 326 325
313 315 316 317 315 314 315 314 317 317 316 315 315 315 313 313 314 315 315 318 318 317 318 319 320 322 326 327 328 328 326 324 320 328 324 324 324 324 325 324 324 326 326 326
313 312 314 314 314 314 314 316 317 316 316 318 315 315 314 314 316 317 316 317 317 317 318 321 323 325 326 327 328 328 326 325 319 322 325 323 323 323 324 324 324 323 325 324
305 306 311 313 314 314 315 317 319 319 318 319 315 314 314 314 314 316 316 316 318 319 319 318 323 325 326 327 328 327 327 326 318 319 323 324 323 322 322 322 322 321 322 324
305 307 309 313 312 313 315 316 317 321 320 319 317 317 317 317 315 317 317 318 316 317 317 318 321 323 326 327 328 327 327 326 320 317 321 324 323 322 321 318 320 320 320 320
305 309 308 313 314 313 316 319 317 321 321 321 318 318 318 320 318 317 317 317 319 317 316 318 322 324 325 327 327 327 327 326 322 318 318 320 321 322 320 320 320 320 320 321
307 310 309 313 313 314 316 316 320 319 324 322 321 324 324 321 318 317 317 317 319 323 321 321 324 325 325 326 327 327 327 326 323 321 318 318 320 321 321 320 319 319 320 321
308 311 309 313 314 315 316 317 317 318 319 325 325 325 322 320 318 317 316 318 320 324 323 324 325 325 326 325 325 326 326 326 324 323 320 319 319 319 320 320 320 320 322 321
312 314 314 313 312 312 315 317 317 321 323 322 324 324 322 319 318 317 317 316 316 316 320 324 324 325 325 325 326 326 326 326 325 325 324 322 321 319 318 320 320 321 320 320
309 313 315 312 312 314 316 317 317 316 316 322 322 322 322 320 319 318 315 314 312 311 311 316 319 319 323 323 324 325 325 325 325 325 324 324 324 323 321 319 319 320 321 320
308 310 310 310 311 314 314 313 314 315 320 319 319 323 322 320 318 318 314 312 309 307 308 311 314 315 320 322 322 322 323 323 323 324 324 324 325 325 324 322 321 320 319 319
306 308 311 310 310 311 312 312 312 315 316 319 319 320 319 319 318 318 314 312 308 305 304 306 309 311 314 316 317 319 321 322 323 322 321 322 322 323 323 323 323 323 321 321
308 310 309 309 310 308 308 306 307 311 316 317 317 317 316 319 317 318 314 311 308 305 302 302 304 305 308 309 311 314 316 318 320 319 320 320 320 321 321 321 321 321 321 322
308 308 308 309 307 306 306 309 307 310 317 317 317 316 318 318 318 316 313 310 306 303 302 300 301 303 304 305 305 306 307 307 310 314 316 318 318 319 319 320 320 320 320 320
307 307 306 308 307 306 304 305 310 315 315 316 317 318 317 314 315 313 311 308 307 306 304 305 303 302 303 304 305 305 305 304 304 305 306 307 308 310 313 316 318 318 319 320
305 305 305 305 306 305 305 311 311 313 312 313 316 316 310 307 307 303 303 304 304 303 305 303 303 304 301 304 303 303 303 304 304 304 305 305 306 306 307 307 308 310 311 314
303 303 304 306 307 304 305 309 308 310 311 311 311 313 309 311 311 305 300 300 305 301 301 301 302 301 302 303 302 302 303 303 303 303 302 303 303 304 305 305 306 306 307 307
305 305 307 306 305 305 305 306 309 311 309 306 307 313 310 311 307 300 300 301 301 300 298 297 300 302 301 300 300 300 300 301 299 299 299 300 301 301 301 301 302 301 301 301
305 305 305 307 307 306 304 308 309 308 306 304 303 304 300 299 298 295 295 296 298 297 296 297 298 298 298 298 298 299 300 297 297 297 297 297 298 298 298 298 298 298 297 298
302 304 306 306 305 304 302 302 301 308 307 303 302 299 297 296 296 297 294 294 293 293 293 294 295 295 295 296 296 296 294 295 295 295 296 295 295 295 296 296 296 296 295 294
306 306 307 307 306 304 302 300 298 298 298 300 300 300 299 294 295 294 294 294 293 290 290 290 290 291 291 292 292 292 292 293 294 295 294 294 295 294 294 294 293 293 292 291
304 304 303 307 305 303 301 299 297 295 297 297 297 296 295 294 291 290 289 289 288 287 288 290 289 289 289 290 290 290 290 290 291 291 291 291 291 292 291 291 289 289 287 287
299 301 301 305 299 300 296 295 296 294 292 292 295 295 294 293 292 289 287 287 288 288 287 287 287 287 288 289 289 289 289 289 289 289 288 288 288 287 287 287 287 286 286 287

GFSCGP_850_thetae_075.txt.gz
Theta_e
310 310 310 309 309 309 309 310 310 310 311 312 313 315 315 315 314 315 315 315 315 317 319 318 318 324 330 329 328 328 327 326 325 326 326 326 325 326 325 324 327 326 327 326
314 313 311 310 309 308 309 310 311 310 310 311 311 312 315 315 315 315 316 316 315 316 318 319 318 321 328 328 328 328 327 327 326 322 325 328 326 324 324 325 327 324 326 327
312 312 313 312 314 314 314 314 314 313 313 313 312 313 313 314 315 315 314 315 316 316 318 317 317 318 326 327 328 328 327 327 324 323 325 325 328 325 325 325 326 325 326 326
314 313 313 315 315 315 315 313 313 314 314 315 312 316 315 315 316 316 316 316 316 318 319 317 316 318 322 327 328 328 327 327 324 324 326 324 326 324 324 326 326 326 324 325
311 315 316 316 314 315 315 314 315 316 317 317 316 317 316 315 316 316 317 316 317 318 318 317 316 318 324 327 328 328 328 327 325 323 325 325 325 324 324 327 325 327 325 324
313 312 314 315 314 314 314 315 316 316 317 319 317 317 317 316 316 317 318 318 318 317 317 317 316 318 322 326 328 328 328 327 325 322 323 323 322 324 324 326 324 326 326 325
306 308 312 313 313 314 313 315 318 318 319 318 316 317 317 316 316 319 320 319 319 318 316 318 320 320 323 324 326 328 328 327 325 322 323 323 322 323 323 323 323 325 324 323
307 310 308 312 311 312 315 314 318 320 320 320 317 318 318 320 319 318 318 318 319 320 315 316 320 322 323 324 326 328 328 327 325 320 321 322 322 322 322 322 322 321 321 321
307 308 307 312 313 312 316 317 316 321 318 320 319 318 321 320 319 319 319 320 322 323 321 315 320 323 324 324 326 327 328 327 325 320 320 320 321 321 321 320 319 320 320 320
308 309 309 314 314 315 316 316 321 320 319 321 319 321 324 321 320 319 319 318 321 323 322 316 322 323 324 324 328 327 327 326 324 320 318 320 320 321 320 320 318 319 319 320
307 311 311 315 315 316 316 316 317 317 319 321 324 326 320 320 319 319 317 315 314 316 323 323 324 324 324 324 324 327 326 326 324 322 319 318 318 320 320 320 319 319 319 319
313 314 313 312 312 313 315 316 317 318 320 321 322 322 320 318 316 315 313 312 312 312 316 322 322 323 322 322 322 326 324 325 324 324 322 320 319 319 319 319 320 320 319 320
311 314 316 314 315 314 314 315 317 316 315 319 322 323 320 318 315 312 310 308 308 309 310 315 319 319 321 321 321 321 323 324 324 324 324 324 323 322 320 319 319 320 320 320
309 310 312 312 310 312 313 312 312 315 315 315 320 321 321 317 318 313 310 307 305 304 305 307 312 315 317 318 320 320 322 323 323 324 323 323 323 324 323 322 320 320 319 319
308 309 310 310 310 311 310 310 309 310 314 316 316 316 316 318 318 316 310 306 304 302 301 303 304 307 311 315 317 319 321 323 325 323 323 322 322 323 323 322 322 322 322 321
309 310 310 309 310 307 307 306 308 310 310 313 316 317 316 316 318 314 310 307 304 302 299 299 301 302 304 307 310 314 318 319 320 320 320 320 320 321 321 322 322 322 322 322
308 309 309 308 308 307 306 307 306 309 312 315 317 316 318 319 318 314 310 306 303 301 299 300 301 301 302 302 304 307 308 310 315 316 318 318 317 318 318 319 320 320 320 320
308 308 308 309 307 305 304 306 308 313 314 313 314 316 314 311 306 309 307 305 301 303 301 301 301 302 299 299 301 302 304 306 308 309 309 310 311 313 315 316 316 317 317 317
306 307 308 307 307 305 305 309 309 312 312 312 313 314 311 308 306 302 302 298 297 297 297 300 300 301 301 301 302 305 305 303 302 302 303 303 304 305 306 306 307 309 310 312
305 305 307 306 307 305 305 308 307 309 308 309 308 311 312 310 314 304 299 299 298 301 298 298 298 300 300 299 298 299 299 298 301 301 299 299 301 302 303 303 304 303 302 302
307 307 308 307 307 306 305 306 307 305 308 305 304 308 311 311 303 296 295 294 296 297 295 295 296 296 296 296 297 298 296 296 295 296 297 298 299 300 300 299 301 300 298 298
306 307 307 306 307 306 304 307 307 306 305 302 301 299 298 295 293 295 293 292 295 295 294 292 293 293 293 293 293 294 294 293 293 294 296 296 296 297 298 298 298 297 296 296
306 306 307 306 307 304 302 302 299 305 304 301 299 297 296 294 293 294 292 293 293 295 292 292 291 291 291 292 293 292 291 292 293 293 294 294 294 293 293 293 293 293 293 292
305 304 307 307 306 303 301 298 297 298 297 297 296 295 296 292 290 291 292 291 292 293 291 290 289 290 291 291 291 290 289 290 291 292 292 291 292 292 292 292 291 291 290 290
303 303 302 305 303 300 296 295 294 294 295 295 295 294 294 295 292 292 292 291 292 292 291 290 290 289 289 289 290 290 289 289 290 290 290 291 291 291 291 291 290 290 289 289
298 300 302 302 297 297 294 292 293 293 291 291 291 290 290 291 291 292 291 291 290 289 288 289 288 288 288 289 289 289 289 290 290 290 290 290 290 290 289 289 289 289 289 289

GFSCGP_850_thetae_078.txt.gz
Theta_e
309 310 310 309 311 311 311 311 311 311 312 312 313 315 316 316 317 318 318 318 318 318 318 319 321 328 331 334 335 330 328 328 326 324 325 327 327 327 327 326 327 327 328 328
313 312 311 310 310 311 311 311 312 313 314 314 315 317 317 316 316 316 318 318 318 318 318 318 321 328 330 333 334 330 328 328 327 325 325 327 325 327 326 325 325 325 326 326
312 311 313 313 312 312 313 315 315 316 316 317 318 318 318 318 316 315 316 317 318 318 318 318 321 328 330 332 333 330 329 328 327 326 324 325 323 327 325 325 326 326 326 324
312 311 312 313 314 315 315 315 315 315 317 317 317 318 318 318 318 317 316 317 318 319 318 319 320 326 329 331 333 332 331 329 328 327 323 323 326 326 325 325 325 324 324 324
311 313 315 313 312 314 314 315 315 316 318 319 319 320 319 318 318 318 319 318 319 319 318 320 321 323 328 331 332 332 331 328 328 327 324 324 325 326 325 325 325 326 324 324
312 312 314 315 315 314 314 314 313 316 318 320 319 320 320 319 320 320 320 319 321 321 321 320 321 324 327 331 332 331 329 327 328 327 322 325 324 324 325 325 325 326 326 323
311 311 313 313 313 313 314 312 312 318 319 319 318 319 320 319 321 321 321 322 323 323 323 322 324 326 328 331 330 328 328 327 327 326 324 323 325 323 323 324 325 325 325 325
311 312 309 312 313 311 313 312 315 317 318 318 319 320 321 322 321 321 322 323 325 326 325 321 325 326 328 330 329 328 327 327 327 325 325 323 323 323 324 323 324 324 325 324
311 311 310 312 313 312 316 317 316 319 319 320 318 319 322 322 322 322 322 321 321 325 327 323 324 327 328 329 329 327 327 327 327 325 323 322 322 323 323 322 322 322 322 321
311 311 311 314 314 314 317 316 319 320 321 321 319 321 322 324 323 323 322 320 317 319 325 324 326 328 328 327 327 327 326 326 326 323 320 325 322 322 322 322 322 321 320 320
310 311 313 315 316 315 317 318 318 318 320 321 322 328 320 320 319 319 318 315 313 314 318 325 326 327 326 323 323 324 325 324 326 321 324 324 323 321 321 320 320 320 320 320
311 313 313 313 313 314 314 316 317 319 320 322 323 323 319 316 314 313 312 310 310 309 310 321 324 323 322 322 322 322 326 325 322 322 322 321 320 321 320 320 320 319 319 320
310 314 314 313 315 315 315 316 316 314 317 320 322 325 317 316 313 311 309 307 306 306 305 311 318 317 319 321 321 322 322 322 324 324 322 321 322 319 319 320 320 320 320 319
306 312 314 312 314 314 316 315 315 315 317 317 315 317 318 318 316 314 308 306 304 303 302 304 309 310 315 318 319 320 321 322 322 321 322 322 322 322 321 321 319 319 320 320
306 314 312 312 310 312 311 311 311 313 313 314 311 312 314 317 318 314 309 306 303 301 300 299 303 305 306 312 316 318 320 320 321 322 322 323 323 322 322 321 320 320 320 320
305 313 311 311 309 311 310 309 308 310 312 312 313 314 316 317 318 313 309 306 303 301 298 296 297 301 303 303 308 311 315 317 318 319 321 321 321 322 321 321 322 321 321 321
306 310 312 311 310 308 308 308 309 309 311 314 316 315 317 318 317 313 309 306 303 299 297 296 295 297 298 299 301 304 309 311 312 316 316 315 318 319 318 319 319 319 319 319
307 308 309 308 307 306 309 308 310 311 312 314 314 317 316 311 306 305 305 303 301 299 297 296 294 294 296 299 300 300 304 305 307 308 309 307 311 316 315 314 315 316 317 316
307 310 310 307 307 306 306 310 310 311 312 313 313 314 312 306 303 298 298 298 297 294 295 295 293 296 298 298 298 300 299 298 299 299 300 303 306 306 304 306 308 311 312 313
305 307 310 308 306 305 311 309 308 309 311 310 309 311 312 310 314 301 294 295 295 294 294 296 295 295 298 300 298 298 300 301 304 303 303 304 303 301 302 301 301 300 301 303
308 308 309 308 307 307 308 308 308 307 311 307 305 303 306 310 299 292 293 292 291 292 296 297 296 293 294 297 299 301 300 301 300 300 299 300 299 299 299 298 297 296 298 298
306 308 309 308 307 307 306 309 310 307 306 304 301 298 294 292 291 292 292 292 293 292 293 292 294 294 293 291 292 293 295 295 295 293 292 294 296 295 295 296 294 294 295 295
307 308 309 308 310 305 303 303 300 302 302 301 299 296 294 292 290 290 290 291 290 291 290 289 290 290 290 289 290 292 293 293 293 293 292 292 292 292 290 290 288 289 289 290
306 304 307 308 302 301 300 298 295 295 295 294 294 293 291 289 289 289 289 288 289 288 288 288 288 288 288 288 287 287 287 287 288 288 290 290 289 288 288 289 290 290 289 289
302 304 303 304 300 298 296 295 295 294 293 293 292 292 291 289 288 287 287 287 287 288 289 290 286 286 286 288 289 287 287 287 287 287 285 285 287 288 289 289 287 289 290 290
299 299 302 304 297 297 294 292 293 292 291 291 291 290 289 289 287 287 285 286 288 290 290 290 287 288 287 288 288 288 287 286 287 288 288 287 285 284 284 286 287 287 287 287

GFSCGP_850_thetae_084.txt.gz
Theta_e
311 311 311 313 313 313 314 314 313 313 313 313 314 314 314 315 315 315 315 316 319 319 320 320 319 318 319 323 334 338 339 339 336 336 330 324 322 322 322 328 329 330 329 329
313 313 313 314 314 313 313 312 312 312 313 314 315 315 317 318 318 317 316 316 317 319 320 320 320 319 322 327 333 337 339 339 336 335 327 326 325 323 322 321 327 326 327 328
314 314 315 315 315 314 313 313 312 313 313 314 316 316 316 317 316 317 317 317 316 318 320 321 320 319 324 329 335 338 339 337 336 333 331 329 328 328 330 329 328 326 326 328
313 314 314 314 314 314 314 313 314 315 315 317 316 317 316 316 318 319 319 318 318 318 317 321 321 319 326 327 337 338 340 337 336 333 331 329 326 323 324 326 327 327 327 328
312 313 313 313 313 312 312 314 315 315 316 317 316 315 315 316 318 319 320 320 320 319 318 320 321 320 327 327 334 338 339 337 335 333 332 329 326 324 324 327 327 327 327 327
312 312 312 312 313 314 314 314 314 315 316 318 317 314 315 317 322 323 323 323 325 321 318 319 321 320 326 330 335 337 338 336 334 333 332 330 328 328 326 328 327 329 327 326
314 314 314 314 314 314 315 315 314 314 315 317 319 322 319 323 323 322 323 325 325 325 326 328 328 321 321 330 334 336 337 336 334 333 333 331 329 329 327 327 328 327 325 325
311 312 313 315 315 314 314 315 316 314 317 316 316 324 324 322 324 322 322 322 322 321 320 323 325 326 324 332 335 337 337 335 334 333 332 331 329 326 327 327 326 326 325 326
313 312 313 314 314 314 314 314 314 316 316 316 316 319 324 322 321 320 319 318 318 316 316 318 323 328 326 331 335 336 336 335 334 334 332 330 328 326 327 327 327 325 325 324
314 315 312 313 314 314 314 315 319 319 319 317 316 319 326 321 320 319 317 316 315 313 311 313 320 329 331 333 335 336 335 334 334 332 331 329 328 326 326 325 326 327 325 325
311 313 315 314 315 315 315 316 316 317 318 320 322 324 316 318 318 317 316 313 311 308 307 313 317 324 329 331 333 333 332 332 331 331 330 328 326 325 325 325 325 324 323 323
308 312 315 314 313 314 314 314 317 319 317 319 320 321 318 318 318 316 314 311 308 305 306 308 313 318 325 326 328 329 329 330 330 329 328 326 325 324 324 323 323 322 324 322
307 309 311 311 312 312 313 314 317 319 319 319 320 320 318 318 318 316 314 310 306 303 307 307 309 312 316 321 325 327 327 327 327 327 325 323 323 323 323 322 322 321 321 320
305 306 307 312 312 311 314 316 316 316 320 318 318 317 316 320 320 318 311 307 303 301 302 304 304 305 307 313 319 324 326 325 325 325 323 322 322 322 322 321 321 320 320 320
305 304 305 307 309 308 311 314 314 315 318 318 316 314 319 320 320 314 310 307 303 300 299 300 302 301 303 306 309 317 319 323 323 322 322 322 323 322 322 323 322 321 321 321
305 306 305 305 306 308 311 312 313 314 316 316 316 314 317 316 316 313 309 305 302 300 298 297 299 301 299 300 302 305 310 317 319 322 321 320 320 319 320 320 321 321 321 320
304 305 306 306 306 308 313 312 311 312 314 313 315 317 314 311 308 307 305 302 300 297 296 296 296 297 298 297 298 300 303 306 311 314 316 317 318 319 320 320 319 320 319 319
305 305 306 307 308 308 310 311 311 311 315 314 313 314 311 305 300 298 299 298 296 295 295 294 295 298 298 296 297 297 300 302 304 305 306 307 311 311 311 314 316 315 317 318
305 305 307 308 308 309 311 311 311 312 313 310 311 311 310 303 301 296 294 295 294 294 294 294 295 294 299 300 296 297 298 300 300 300 300 300 303 304 304 306 307 308 308 311
304 306 306 306 308 313 314 310 310 310 315 308 308 306 305 307 310 298 293 293 293 294 293 293 293 294 295 296 298 299 297 298 298 297 298 298 299 301 297 298 299 301 304 304
305 306 306 307 308 312 305 308 309 310 311 305 303 300 297 298 294 292 292 292 292 292 292 292 293 293 293 293 294 294 295 298 296 298 297 298 297 299 300 297 295 297 298 300
305 307 308 308 312 311 303 306 308 305 303 302 299 296 294 292 291 290 291 291 291 292 291 291 291 291 291 291 291 291 292 291 294 296 299 296 295 293 295 295 294 294 296 296
309 308 309 305 306 302 300 300 299 299 299 299 297 295 293 292 290 290 289 290 291 291 291 290 290 290 290 290 290 289 289 289 289 291 292 292 292 294 294 295 293 293 292 291
305 305 307 306 301 299 298 298 296 295 296 295 294 293 292 290 289 289 289 289 289 289 289 289 289 288 289 289 289 289 289 288 288 290 290 290 292 293 293 292 293 293 292 292
301 302 302 302 301 299 296 295 296 295 294 293 293 292 291 290 289 288 287 287 287 287 288 287 287 287 287 288 288 288 288 288 288 288 289 289 290 291 291 291 290 290 289 290
298 298 299 301 298 297 295 294 293 293 294 294 292 290 289 289 288 287 286 286 286 286 286 285 285 285 286 287 288 288 288 287 287 287 287 286 287 287 287 287 287 287 287 287

GFSCGP_850_thetae_087.txt.gz
Theta_e
310 307 306 306 308 309 310 310 310 310 311 311 310 310 310 312 312 313 313 314 314 314 315 318 319 319 319 319 318 328 338 339 337 336 336 328 330 325 322 322 327 324 328 330
310 309 309 310 311 311 311 311 310 309 310 311 310 310 310 313 313 314 314 315 314 314 314 316 319 319 320 319 323 329 337 338 337 335 335 328 330 324 322 320 320 322 327 329
311 311 312 312 312 313 312 312 311 311 311 311 311 311 313 314 314 315 315 316 316 315 315 316 318 319 320 319 325 333 337 337 338 337 335 331 329 326 323 321 321 319 327 327
310 312 313 313 314 313 313 312 313 312 312 315 314 317 314 314 314 314 319 319 315 316 316 316 318 319 321 325 328 335 336 338 337 337 334 330 329 327 326 322 317 324 326 327
311 311 311 312 312 312 312 312 312 312 312 312 314 315 314 314 314 314 322 324 318 317 318 318 317 318 321 332 335 334 335 338 337 335 332 331 330 328 325 323 326 327 327 327
309 311 309 310 311 312 312 314 314 313 312 314 314 316 317 317 316 323 324 322 320 320 323 325 325 324 325 331 335 335 335 336 336 334 332 332 330 326 323 323 325 326 327 327
311 311 311 311 310 312 312 313 314 313 313 314 316 316 320 322 323 322 321 319 317 316 317 323 325 325 324 333 337 336 337 335 336 335 334 332 330 326 324 324 326 327 326 327
306 308 309 312 311 312 312 312 314 317 316 315 314 316 322 316 319 318 317 316 314 312 315 320 324 328 327 327 333 338 336 336 335 335 333 332 330 328 327 325 326 326 326 326
313 312 312 313 313 313 313 312 313 315 315 315 314 313 321 318 319 318 317 314 311 310 312 318 322 326 331 329 335 334 335 335 335 333 333 331 330 329 327 326 326 325 325 325
308 311 312 313 313 312 312 313 313 315 319 319 316 322 323 318 318 317 315 312 309 307 310 316 319 322 327 331 332 332 334 333 333 333 331 330 329 329 325 325 325 325 325 325
305 310 311 310 313 313 313 313 314 315 317 318 319 320 316 317 317 317 314 310 307 304 305 310 315 320 322 327 329 329 330 330 333 333 331 330 328 325 325 324 324 325 325 325
307 309 307 307 307 308 311 315 314 315 316 317 319 321 316 317 317 314 311 308 305 303 303 306 312 316 321 323 327 330 331 332 333 333 331 329 327 324 324 324 324 323 323 322
305 306 307 305 307 310 312 312 312 315 317 319 319 319 318 317 317 312 308 304 302 301 303 303 310 312 314 318 323 327 329 329 330 330 329 327 325 323 324 323 322 322 322 321
304 305 305 306 306 307 310 310 310 313 317 319 318 316 317 319 316 310 306 303 301 299 299 300 304 306 308 311 317 322 325 327 326 328 327 325 324 324 323 322 322 322 321 320
303 303 303 304 304 304 305 308 309 311 313 316 318 317 319 316 312 309 306 303 301 299 297 296 299 301 305 306 309 313 317 321 324 324 324 323 322 322 323 323 322 321 320 319
302 302 303 303 303 305 305 305 308 310 314 316 315 315 315 312 310 307 305 302 299 297 295 295 296 298 301 303 303 306 309 314 316 322 322 322 320 321 320 320 321 319 319 319
300 299 304 302 304 306 307 308 308 312 314 313 315 314 311 307 304 303 301 299 297 295 295 295 295 295 297 300 301 302 304 306 310 312 316 318 320 321 320 320 321 321 321 321
300 301 303 303 304 306 305 308 310 313 311 311 312 308 306 301 297 295 295 295 294 294 294 294 294 294 295 298 300 301 301 303 304 305 306 308 314 316 316 317 317 316 317 317
302 302 304 305 304 306 308 309 308 312 311 307 307 305 304 299 297 294 293 293 293 293 294 294 294 294 294 296 297 300 301 301 301 301 301 300 303 303 306 308 310 310 309 309
303 302 302 306 306 306 309 306 303 305 312 304 302 301 299 303 307 295 292 292 292 292 293 293 294 293 294 294 296 298 301 301 299 299 300 300 300 300 300 300 301 300 301 302
303 304 305 305 304 307 304 301 303 310 307 300 298 295 295 294 293 291 291 291 291 291 292 292 292 292 292 293 295 296 295 295 296 297 298 298 298 298 300 296 300 300 298 297
305 306 307 306 306 307 299 302 304 303 300 298 295 293 292 291 291 291 291 291 291 291 291 291 291 291 290 291 292 293 292 292 293 294 296 296 295 296 295 297 295 296 297 297
308 306 305 304 303 300 298 297 297 297 298 296 295 293 291 290 290 290 290 291 291 290 289 289 289 289 289 289 290 290 290 293 293 294 293 294 293 293 294 293 294 292 294 293
302 301 304 303 299 297 296 296 295 295 294 293 293 291 290 289 289 289 289 289 289 289 289 288 288 289 288 288 288 288 288 289 290 290 291 291 292 292 292 291 291 292 291 291
299 299 300 301 299 296 295 295 295 294 293 292 291 290 289 289 288 287 287 287 287 288 288 288 288 288 287 288 288 288 288 288 288 288 288 289 290 290 290 290 290 290 289 289
297 297 297 298 296 296 294 293 293 293 293 291 290 289 288 288 287 287 286 286 286 286 286 287 286 286 287 287 287 287 287 288 288 287 287 287 286 286 287 288 288 288 288 288

GFSCGP_850_thetae_090.txt.gz
Theta_e
308 307 305 304 305 307 308 308 308 308 308 309 308 307 309 309 309 309 312 312 314 314 315 315 316 314 316 317 317 317 319 321 330 333 337 335 334 325 328 338 335 332 329 323
309 307 308 307 307 308 308 308 308 309 308 309 309 309 310 309 308 311 312 313 313 314 314 315 315 315 315 319 318 318 319 320 326 330 336 337 334 325 322 325 332 329 327 328
309 310 310 310 310 310 310 309 309 311 310 309 308 310 312 311 311 313 314 315 320 319 318 317 315 317 316 317 319 318 318 319 327 330 334 336 333 329 325 324 327 328 329 326
309 310 311 311 311 310 310 311 311 311 310 310 312 313 312 312 312 312 313 320 318 317 318 314 314 315 315 316 319 319 319 320 326 332 336 336 334 329 326 323 323 323 326 327
310 310 310 310 310 311 311 311 311 310 310 311 312 311 312 315 322 320 320 319 317 317 315 318 320 319 317 318 319 321 322 322 327 336 336 336 334 330 326 323 322 322 321 323
308 309 309 309 309 310 311 313 312 312 311 314 312 311 313 321 319 317 318 317 315 316 316 316 319 323 323 323 333 330 329 326 334 335 337 336 334 330 326 326 324 320 325 325
309 310 309 309 308 309 310 311 313 313 311 313 312 314 314 317 316 316 317 316 312 312 313 315 315 324 325 333 337 336 334 334 334 335 335 335 333 328 326 326 324 322 326 326
306 307 308 310 309 309 309 310 312 316 314 311 313 313 319 317 315 315 317 314 312 314 310 312 312 320 326 328 335 328 331 334 334 336 335 334 331 330 327 324 322 324 325 325
307 310 308 311 309 309 312 311 311 313 312 314 313 317 318 317 317 317 317 313 308 306 306 307 314 320 323 327 333 333 330 329 332 335 334 333 332 330 326 326 323 325 325 325
304 304 310 308 309 310 312 312 310 309 315 317 315 316 320 318 318 317 315 310 305 303 304 307 311 317 319 324 330 335 332 333 331 331 332 332 331 329 328 327 324 325 324 324
304 307 305 305 309 306 306 308 312 312 314 316 315 314 317 317 317 317 311 307 303 302 301 304 308 312 317 320 326 329 330 330 330 329 330 332 330 329 328 326 325 324 324 324
305 306 307 304 305 305 307 311 315 316 315 314 314 315 316 315 316 310 306 304 301 300 299 301 305 309 314 318 323 327 323 328 328 328 329 330 329 328 325 324 324 324 323 323
303 303 303 300 302 306 307 307 308 310 312 314 317 315 316 317 310 307 305 302 300 299 298 300 303 306 309 314 318 322 322 325 324 324 330 329 328 326 325 324 323 324 324 322
303 302 303 302 302 304 303 303 304 308 311 313 313 316 316 315 311 307 304 301 300 298 297 297 298 301 303 306 312 318 321 325 326 325 329 329 326 324 324 324 324 323 322 322
302 302 303 303 303 303 304 304 303 305 306 311 314 315 315 313 310 306 303 301 299 297 295 295 295 297 299 302 305 309 315 319 323 325 325 326 325 324 324 323 323 322 322 320
299 301 300 299 300 302 302 304 304 305 305 308 310 315 306 306 305 303 302 300 298 296 294 294 295 297 298 299 301 304 308 312 316 321 323 324 324 323 322 322 322 321 320 319
298 297 300 299 302 303 303 305 305 305 309 312 314 313 307 303 300 298 298 296 295 294 293 294 294 295 296 297 299 301 303 306 310 311 313 320 322 322 322 322 322 321 320 319
297 298 300 302 302 304 305 307 308 310 309 309 308 308 303 298 295 294 293 293 293 293 293 293 294 295 295 297 298 299 301 304 305 304 306 310 314 316 317 318 319 320 319 318
299 300 302 302 304 304 304 308 305 304 307 303 304 305 300 296 295 293 292 292 292 292 292 293 293 294 296 297 296 298 299 301 303 303 302 303 302 302 304 308 310 308 311 313
302 300 301 304 305 303 304 301 302 303 307 301 299 298 300 299 304 294 291 291 292 292 292 292 293 293 295 295 296 297 297 297 298 299 300 301 301 301 302 300 300 301 303 304
302 303 303 303 304 304 300 300 300 308 304 297 295 294 296 294 293 291 291 291 291 291 291 291 291 291 291 293 295 295 294 294 294 295 297 299 300 300 300 300 299 300 299 299
305 306 305 305 305 305 297 299 301 300 297 295 293 292 291 291 291 291 291 291 290 289 290 290 289 289 289 291 292 291 292 292 293 294 295 296 297 298 297 298 297 296 298 297
303 301 303 302 300 298 296 296 296 296 296 294 292 291 290 289 289 290 290 290 289 288 289 289 289 289 289 289 289 290 289 290 291 293 293 293 293 293 293 295 294 292 293 294
300 299 302 300 298 297 296 295 294 293 292 291 291 290 289 288 288 288 289 289 289 288 288 288 289 288 288 288 288 288 289 290 291 291 291 291 292 292 292 292 291 291 292 292
298 298 298 298 297 295 294 294 293 292 291 291 290 289 288 288 287 288 287 287 287 287 287 288 288 288 288 288 288 288 287 288 288 288 289 289 290 290 290 291 291 291 290 290
296 296 297 294 294 294 293 292 292 292 290 289 288 287 287 288 286 286 286 286 286 286 286 286 286 287 287 287 287 287 287 288 288 287 286 287 287 288 289 289 289 288 288 288

GFSCGP_850_thetae_093.txt.gz
Theta_e
306 305 305 304 304 306 307 307 307 306 306 307 307 308 307 308 307 307 309 310 311 311 314 315 316 314 314 315 315 314 316 316 319 325 327 335 335 337 332 331 327 329 332 333
307 307 307 306 305 306 306 306 306 306 307 307 306 308 309 307 307 309 309 312 317 317 318 319 318 318 316 316 316 315 316 316 316 318 323 330 330 336 335 329 329 331 334 333
307 309 309 308 308 308 307 307 308 308 309 308 308 309 309 310 311 318 318 318 317 316 315 316 318 316 315 315 314 315 316 317 317 319 327 332 335 334 332 332 329 336 333 332
308 309 309 309 309 309 309 309 309 310 309 310 308 311 311 310 319 318 317 317 315 315 317 314 319 320 317 316 315 314 316 318 319 322 321 326 331 331 330 332 328 326 330 330
307 309 309 309 309 309 310 310 310 311 310 310 310 309 309 315 319 317 314 316 315 313 314 314 317 319 320 321 318 316 316 318 321 319 321 327 334 330 330 329 325 325 327 328
307 308 308 308 309 308 310 311 310 309 310 312 309 309 308 318 317 316 316 317 314 312 311 313 318 320 320 324 328 321 321 321 322 324 323 331 333 331 331 330 325 326 325 325
309 309 308 309 309 308 309 309 310 311 311 312 309 311 310 316 316 316 316 316 311 310 307 308 316 319 318 321 332 334 331 328 327 331 331 333 332 333 332 330 324 323 323 322
308 309 309 309 310 310 308 308 311 314 314 310 311 312 312 317 316 317 317 311 312 308 305 306 313 313 315 319 324 333 337 334 332 333 333 333 334 334 332 330 324 323 321 319
305 309 305 308 305 308 310 310 309 311 311 312 311 312 316 317 317 317 314 309 306 304 303 304 308 309 313 318 322 330 336 334 334 332 331 330 331 331 332 327 326 323 319 321
303 303 307 304 307 306 305 308 310 309 317 316 312 312 312 317 316 317 311 306 303 303 303 303 305 308 312 315 321 328 334 332 331 327 329 329 328 331 329 327 324 322 322 324
303 304 304 302 305 304 303 307 309 313 313 316 313 310 314 315 315 312 307 303 301 300 301 301 303 305 308 313 319 325 328 330 328 326 327 328 327 330 329 325 324 323 323 324
303 304 305 302 303 303 303 310 311 312 312 310 314 312 312 311 310 307 304 302 300 298 298 299 301 303 305 309 314 319 324 327 327 327 327 327 328 329 327 327 325 324 324 324
302 301 301 298 301 303 304 303 304 305 308 310 313 312 311 311 308 305 303 301 299 297 296 296 299 303 303 305 309 313 320 324 323 323 326 327 328 328 327 325 324 324 323 323
302 302 301 301 300 302 303 302 303 304 303 306 307 308 312 312 311 306 302 300 298 296 295 295 296 299 302 304 306 310 315 319 320 323 321 326 328 328 326 325 325 324 324 323
300 301 302 302 301 300 299 300 301 302 303 304 304 307 308 309 306 303 301 300 298 296 294 293 294 296 298 302 305 306 309 315 319 320 321 322 327 326 325 324 323 323 323 321
298 300 299 300 298 297 300 301 302 302 302 303 303 304 308 304 302 300 299 297 296 294 293 294 293 294 296 298 301 303 304 306 310 312 317 321 321 325 324 324 324 323 321 322
298 296 298 299 300 301 301 303 306 303 302 305 305 308 306 302 298 296 296 294 294 292 292 293 293 293 294 296 298 300 302 304 307 306 310 315 318 322 324 324 323 322 322 321
296 297 296 299 300 301 303 304 304 307 306 307 309 305 303 298 295 293 292 292 292 292 292 292 293 294 295 295 297 299 301 303 304 305 305 305 304 309 319 319 320 320 320 319
297 298 296 297 300 302 303 304 303 304 305 302 304 302 298 295 295 293 292 291 291 291 291 291 292 293 295 295 295 297 298 299 301 300 301 304 303 303 304 308 311 314 315 316
298 299 300 303 298 301 300 300 300 302 305 299 298 298 301 298 304 293 291 291 291 291 291 290 290 291 293 294 294 296 296 297 297 297 299 300 301 302 302 303 302 301 305 306
302 301 301 301 302 302 298 298 298 305 302 295 294 293 295 294 293 291 291 290 290 290 289 289 289 289 290 291 292 293 293 294 294 296 296 297 298 298 298 300 300 300 300 301
304 302 304 303 304 304 296 298 299 298 295 293 292 291 291 290 291 291 290 289 289 289 289 289 290 289 289 290 292 291 291 291 293 294 295 295 296 296 296 296 296 297 297 298
302 300 301 299 299 297 295 295 294 295 294 293 291 290 290 290 289 289 289 288 288 288 288 289 289 289 289 289 289 291 290 291 292 293 293 292 293 293 294 295 295 294 295 295
299 298 300 299 297 295 295 293 292 292 291 291 290 290 290 289 288 288 288 288 288 288 288 288 289 288 288 288 288 288 290 290 291 292 292 291 292 291 292 292 292 293 293 292
296 297 298 297 296 294 293 293 291 290 290 289 288 288 288 288 287 287 286 286 286 286 286 287 287 287 287 288 287 287 288 289 290 290 290 290 290 290 290 290 289 290 289 290
296 296 297 295 294 294 293 292 292 290 289 288 287 287 286 286 286 285 285 285 285 285 285 286 286 286 287 287 287 287 287 287 288 288 288 288 288 289 289 289 289 288 287 288

GFSCGP_850_thetae_099.txt.gz
Theta_e
305 307 307 307 308 308 309 309 309 309 308 307 309 310 310 310 308 309 309 317 317 316 315 315 315 315 315 316 318 316 314 314 314 314 313 314 316 320 333 331 330 331 329 326
306 308 307 307 306 307 307 308 307 307 307 307 310 311 311 310 309 310 318 316 316 315 315 315 314 315 315 316 317 319 318 315 315 314 314 313 315 316 334 333 332 333 331 329
307 309 307 306 306 306 306 307 308 310 309 309 309 311 310 309 314 317 317 315 315 314 313 313 314 314 314 315 316 317 320 317 315 313 325 327 329 333 336 331 329 332 332 331
309 309 307 308 308 308 309 308 309 309 310 312 310 312 310 311 313 317 315 316 315 313 312 311 309 310 313 314 314 315 319 320 316 314 324 329 330 333 329 327 327 329 331 331
311 309 309 309 309 309 310 310 309 310 310 310 311 312 311 311 316 316 316 316 314 312 310 309 307 306 308 313 315 316 317 320 319 319 317 328 327 328 331 330 325 326 327 328
308 306 308 309 309 309 310 310 311 310 311 313 312 311 310 312 316 316 316 316 311 309 308 307 305 305 309 314 315 315 316 319 322 324 317 328 328 329 331 328 326 329 328 326
307 307 307 308 308 308 309 310 310 311 313 311 309 311 311 311 315 316 317 312 308 305 304 303 302 304 309 310 312 314 316 319 324 325 324 330 332 331 330 328 328 330 324 321
308 308 308 307 310 310 309 310 310 311 312 311 310 312 312 314 316 313 310 307 305 303 302 301 301 299 304 307 309 312 315 318 324 329 329 330 331 332 332 332 331 330 325 324
310 309 307 305 305 308 310 311 310 311 311 311 311 311 313 316 315 311 309 306 304 301 300 300 299 299 304 306 307 308 312 318 324 328 331 331 330 330 331 332 332 330 326 326
304 305 305 304 306 303 308 309 314 313 312 310 311 312 314 315 313 310 308 306 303 300 299 298 298 298 305 304 306 310 312 315 323 328 331 330 330 329 328 331 330 330 329 328
304 304 303 303 303 302 302 305 311 312 313 315 312 313 312 312 310 309 306 304 301 300 298 297 298 299 302 303 304 307 311 316 322 325 328 330 329 330 330 331 331 329 325 322
303 304 302 302 302 303 305 308 308 308 310 310 311 313 311 309 307 306 304 302 300 298 298 296 300 300 300 301 304 306 309 313 314 324 325 327 329 329 329 328 328 325 320 322
301 301 299 301 303 302 303 303 302 303 304 304 309 309 310 307 305 303 302 300 299 297 296 296 299 298 298 298 300 303 305 309 313 322 325 327 327 325 326 324 324 325 325 324
302 301 299 300 302 302 302 302 301 301 304 303 304 303 302 302 305 303 301 299 298 296 294 294 297 296 297 296 298 300 302 306 310 314 320 322 325 325 325 326 325 325 324 323
301 301 302 301 301 301 301 301 300 299 299 299 297 299 300 301 303 302 299 297 296 295 293 293 294 294 295 296 297 300 301 304 305 310 313 317 319 321 324 325 326 325 323 324
299 302 300 300 300 300 299 299 298 298 299 300 302 304 304 303 301 299 297 296 295 293 292 291 292 293 294 295 296 297 298 299 301 304 308 309 314 316 318 323 321 323 325 325
299 299 298 296 299 298 297 299 299 302 304 304 304 304 305 301 299 297 295 294 293 292 291 290 291 291 293 294 295 296 296 298 299 301 303 305 305 308 310 314 319 320 316 324
298 298 297 297 298 295 303 301 303 301 303 301 301 303 304 300 294 293 292 292 291 291 289 290 291 291 292 293 295 295 296 296 297 298 298 300 302 303 305 306 304 306 307 314
298 298 299 299 299 299 302 300 299 300 301 297 297 299 295 293 293 292 291 290 289 289 289 289 290 290 291 292 293 294 295 295 295 296 297 298 298 300 303 305 304 304 301 301
297 299 299 300 300 301 299 297 297 299 302 295 294 295 295 295 299 293 289 288 289 289 289 289 289 289 291 291 292 293 293 293 293 293 294 296 298 299 299 300 301 301 302 301
300 299 300 300 301 301 296 296 296 302 299 293 292 291 296 292 291 288 288 288 288 288 288 289 289 289 288 289 291 291 291 291 291 292 293 294 295 296 297 298 298 299 300 301
302 302 301 300 301 301 295 296 297 295 293 291 290 289 288 288 288 287 287 287 288 288 288 288 288 288 288 288 289 289 289 289 290 291 292 293 294 294 294 295 296 296 296 296
301 299 300 299 298 296 293 293 291 291 290 290 289 288 288 286 285 286 286 286 287 287 287 287 288 288 288 288 288 288 288 289 290 291 291 291 291 292 293 292 293 293 294 293
298 297 298 298 296 295 293 291 290 289 288 288 288 288 287 286 286 285 285 285 286 286 287 287 288 287 287 287 288 287 287 288 289 290 290 290 290 290 290 291 291 290 290 291
296 296 298 296 295 294 292 291 289 288 288 287 286 286 285 286 285 284 284 284 284 285 285 286 286 286 287 287 287 287 287 287 287 288 288 289 289 290 289 289 288 287 288 289
295 295 297 296 294 293 292 290 289 288 287 286 286 285 284 285 285 284 284 284 284 284 284 285 285 285 285 286 286 287 286 287 287 287 287 287 287 287 287 287 287 287 287 287